Regional Weather Roundup
Issued by NWS

Home | Current Version | Previous Version | Text Only | Print | Product List | Glossary Off
Versions: 1 2 3 4 5 6 7 8 9 10 11 12 13 14 15 16 17 18 19 20 21 22 23 24 25 26 27 28 29 30 31 32 33 34 35 36 37 38 39 40 41 42 43 44 45 46 47 48 49 50

000
ASUS45 KBOU 260707
RWRCO

WEATHER ROUNDUP FOR COLORADO
NATIONAL WEATHER SERVICE DENVER/BOULDER CO
100 AM MDT TUE MAY 26 2015

NOTE: "FAIR" INDICATES FEW OR NO CLOUDS BELOW 12000 FEET WITH NO
SIGNIFICANT WEATHER AND/OR OBSTRUCTIONS TO VISIBILITY.

COZ001>005-013-030-031-260800-
...NORTHWEST COLORADO...

CITY           SKY/WX    TMP DP  RH WIND       PRES   REMARKS
CRAIG          CLOUDY   N/A N/A N/A CALM      30.08S
HAYDEN         CLOUDY    45  39  81 E7        30.09S
MEEKER         PTCLDY    45  41  86 NE6       30.09S
MOUNT WERNER   NOT AVBL
STEAMBOAT SPGS CLOUDY    41  39  92 CALM      30.10S
WALDEN         PTCLDY    36  32  87 E5        30.04F
$$

COZ006>008-011-260800-
...WEST CENTRAL VALLEYS...

CITY           SKY/WX    TMP DP  RH WIND       PRES   REMARKS
GRAND JUNCTION PTCLDY    53  45  74 S3        30.02R
MONTROSE       MOCLDY    48  41  76 SE8       30.09S
EAGLE          MOCLDY    46  45  93 E3        30.13S
RIFLE          MOCLDY    48  44  86 CALM      30.09S
DELTA          PTCLDY    51  45  79 MISG      30.06S
NUCLA          PTCLDY    46  41  81 SE9       30.13R
$$

COZ017>023-064>068-260800-
...SOUTHWEST COLORADO...

CITY           SKY/WX    TMP DP  RH WIND       PRES   REMARKS
DURANGO        CLEAR     41  38  89 N5        30.11S
CORTEZ         CLEAR     42  40  92 NE6       30.10R
PAGOSA SPRINGS CLEAR     38  38  99 CALM      30.15F
TELLURIDE      PTCLDY    38  36  93 SE3       30.22F
WOLF CREEK PAS NOT AVBL
$$

COZ009-010-012-014-032>034-037-058>063-260800-
...CENTRAL COLORADO...

CITY           SKY/WX    TMP DP  RH WIND       PRES   REMARKS
ASPEN          LGT RAIN  42  39  89 S3        30.15F
BUENA VISTA    MOCLDY    44  34  69 NW13      30.12R
COPPER MTN     SNOW      34  30  86 W18G24    30.25F VSB<1/4 WCI  23
BERTHOUD PASS  HAZE      27  19  74 N12G26    30.26S VSB<1/4 WCI  16
COTTONWOOD PAS MOCLDY    43  30  61 W7        30.19R
GUNNISON       PTCLDY    45  36  70 NE6       30.17S
KREMMLING      PTCLDY    41  36  81 CALM      30.14S
LEADVILLE      CLOUDY    33  33 100 CALM      30.18F
MONARCH PASS   CLOUDY    30  28  93 MISG      30.36F
SALIDA         MOCLDY    44  35  72 W6        30.19R
SUNLIGHT       CLOUDY    34  34 100 CALM      30.27R FOG
WILKERSON PASS PTCLDY    32  28  86 W8        30.26S WCI  25
$$

COZ069>075-260800-
...SAN LUIS VALLEY/SANGRE DE CRISTO MOUNTAINS...

CITY           SKY/WX    TMP DP  RH WIND       PRES   REMARKS
ALAMOSA        CLOUDY    46  37  71 N3        30.11R
LA VETA PASS   PTCLDY   N/A N/A N/A MISG      30.19S
SAGUACHE       PTCLDY    43  34  70 N9        30.13S
$$

COZ035-036-038>040-260800-
...NORTHERN COLORADO FRONT RANGE...

CITY           SKY/WX    TMP DP  RH WIND       PRES   REMARKS
DENVER INTL AP CLOUDY    51  46  83 SW10      30.02S
DMNS CITY PARK   N/A     49  46  90 S2        30.03S
AURORA         MOCLDY    48  46  92 S8        30.04S
FRONT RANGE AP CLOUDY    52  48  87 SW7       30.03F
ERIE MUNI ARPT CLOUDY    49  47  92 CALM      30.01S
BOULDER MUN AP MOCLDY    48  46  93 CALM      30.01S
CENTENNIAL     MOCLDY    47  44  90 S9        30.04S
BROOMFIELD     MOCLDY    50  45  81 SW5       30.03S
FORT COLLINS   MOCLDY    48  45  87 S5        30.03S
LONGMONT       MOCLDY    48  46  92 CALM      30.03S
$$

COZ041-046-047-076>085-087-088-260800-
...PIKES PEAK/PALMER DIVIDE AND SOUTHERN FOOTHILLS...

CITY           SKY/WX    TMP DP  RH WIND       PRES   REMARKS
COLO. SPRINGS  PTCLDY    45  42  89 N9        30.05F
A. F. ACADEMY  NOT AVBL
ELLICOTT       NOT AVBL
FALCON         PTCLDY    44  41  91 NW5       30.08F
FORT CARSON    PTCLDY    46  45  95 N14       30.02F
LIMON          CLOUDY    51  42  71 NW10      29.99F
MONUMENT HILL  NOT AVBL
TRINIDAD       PTCLDY    48  42  80 NW9G22    30.04R
$$

COZ042>045-048>051-090-091-260800-
...NORTHEAST COLORADO...

CITY           SKY/WX    TMP DP  RH WIND       PRES   REMARKS
GREELEY ARPT   MOCLDY    48  46  93 CALM      30.01S
AKRON          MOCLDY    46  45  96 W8        29.98S
BURLINGTON     PTCLDY    52  45  77 N12       29.95F
WRAY           PTCLDY    49  49 100 W5        29.94F
STERLING       MOCLDY    46  45  93 CALM      29.95S
HOLYOKE        NOT AVBL
FORT MORGAN    CLOUDY    50  47  91 W7        29.99F
$$

COZ086-089-092>099-260800-
...SOUTHEAST COLORADO...

CITY           SKY/WX    TMP DP  RH WIND       PRES   REMARKS
PUEBLO         PTCLDY    53  46  77 W6        30.00R
LA JUNTA       MOCLDY    56  48  74 N12       29.98R
LAMAR          CLEAR     53  49  86 NE5       29.92F
SPRINGFIELD      N/A     54  48  80 N6        29.94S
$$



USA.gov is the U.S. government's official web portal to all federal, state and local government web resources and services.